Location: Pulvis Stellarum Observatory
(41.6962°N, 71.4263°W)
Time: 14:09:32
(UTC-05:00)

Daily predictions for brighter satellites

Satellite Brightness Start Highest point End
(mag) Time Altitude Azimuth Time Altitude Azimuth Time Altitude Azimuth
Resurs 01 Rocket 3.0 17:56:39 10° ESE 17:59:48 20° ENE 18:02:58 10° NNE
Cosmos 2219 4.0 17:57:51 10° SSE 18:02:48 31° ESE 18:07:46 10° NE
BREEZE-M DEB (TANK) 4.0 18:01:41 10° SSW 18:05:59 26° SSE 18:08:18 10° E
Cosmos 1954 Rocket 4.0 18:01:40 10° SSW 18:06:51 80° ESE 18:12:06 10° NNE
BREEZE-M DEB (TANK) 3.7 18:04:18 10° NW 18:06:57 37° NNE 18:12:57 10° E
Cosmos 1536 3.7 18:04:15 10° SSE 18:07:38 27° E 18:11:03 10° NNE
Cosmos 2181 Rocket 4.1 18:02:18 10° N 18:08:30 58° E 18:14:43 10° SSE
Okean 1 3.7 18:06:50 10° NNW 18:10:53 70° W 18:14:55 10° S
HJ-1C 4.3 18:11:55 10° SE 18:14:49 27° ENE 18:17:44 10° NNE
Cosmos 1709 Rocket 4.0 18:12:33 10° S 18:18:46 84° E 18:24:57 10° N
Cosmos 2074 Rocket 4.5 18:14:16 10° SSE 18:19:54 37° E 18:25:34 10° NNE
Okean 1 Rocket 3.2 18:19:34 10° S 18:23:57 56° E 18:28:22 10° NNE
Cosmos 2184 Rocket 4.4 18:19:19 10° SSE 18:25:05 39° E 18:30:48 10° NNE
Cosmos 1602 3.7 18:23:13 10° S 18:27:06 89° W 18:31:02 10° N
Meteor 1-11 Rocket 3.8 18:22:53 10° S 18:28:41 75° E 18:34:36 10° NNE
OTV 4 2.9 18:29:45 10° SSE 18:30:23 10° SSE 18:31:02 10° SE
Cosmos 1340 3.4 18:28:28 10° NNW 18:32:12 57° W 18:35:54 10° S
Cosmos 1025 Rocket 3.4 18:30:40 10° N 18:34:50 41° ENE 18:39:00 10° SSE
ALOS 2.3 18:30:25 10° SSE 18:35:00 59° ENE 18:39:37 10° N
Cosmos 2333 Rocket 3.1 18:33:37 10° N 18:38:39 30° NE 18:41:50 18° ESE
FENGYUN 3A 3.6 18:44:01 10° SSE 18:49:25 80° ENE 18:54:52 10° N
Abrixas rocket 2.1 18:48:22 10° SW 18:51:43 75° SSE 18:52:57 36° ENE
Cosmos 1544 Rocket 4.3 18:48:45 10° SSE 18:52:26 28° E 18:56:08 10° NNE
FREGAT/IRIS 4.0 18:50:04 10° S 18:53:00 41° W 18:55:58 10° NNW
Cosmos 1741 Rocket 4.0 18:48:12 10° SSW 18:53:26 86° WNW 18:58:41 10° NNE
NOSS 0 Rocket 4.3 18:48:56 10° NNW 18:54:45 42° ENE 18:58:02 23° ESE
Cosmos 2285 Rocket 4.0 18:48:36 10° NNW 18:55:00 61° ENE 19:01:18 10° SSE
Genesis I 3.8 18:52:15 10° NW 18:56:08 58° WSW 18:59:58 10° SSE
GEOS 3 Rocket 3.7 18:51:19 11° NE 18:56:22 55° ESE 19:01:33 10° SSW
Okean 1-7 Rocket 3.6 18:52:43 10° N 18:57:16 83° W 19:01:44 10° S
GPS 2-04 Rocket1 3.9 18:56:46 10° WSW 19:00:39 34° S 19:01:59 28° SE
FengYun 1-2 T 4.3 18:58:00 10° S 19:03:28 80° WSW 19:09:01 10° NNW
Meteor 1-5 Rocket 4.2 18:57:47 10° S 19:03:44 76° E 19:09:37 10° NNE
Intercosmos 24 4.5 19:04:35 10° S 19:08:56 89° ESE 19:15:23 10° N
Hubble Space Telescope 3.1 19:11:27 10° S 19:12:47 11° S 19:12:52 11° S
ATLAS CENTAUR R/B 2.7 19:11:49 10° SSW 19:14:33 27° S 19:14:33 27° S
ATLAS 2A CENTAUR R/B 4.4 19:19:43 10° S 19:21:12 11° SSE 19:22:35 10° SSE
Cosmos 405 Rocket 2.6 19:19:01 10° N 19:23:06 77° E 19:23:33 66° SE
Cosmos 468 Rocket 3.9 19:18:19 10° NNW 19:23:34 69° ENE 19:25:21 41° SE
USA 229 DEB 3.8 19:17:37 10° NW 19:24:47 84° WSW 19:29:53 21° SSE
Helios 1A 2.8 19:23:44 49° SSE 19:24:47 81° ENE 19:28:58 10° N
USA 229 3.8 19:17:42 10° NW 19:24:52 84° WSW 19:29:56 22° SSE
CZ-2D R/B 3.3 19:24:00 30° S 19:25:48 73° W 19:29:37 10° NNW
Okean 2 3.5 19:22:24 10° NNW 19:26:35 75° W 19:29:22 20° S
H-2A R/B 3.5 19:23:31 10° S 19:27:08 50° W 19:30:47 10° NNW
Spot 2 Rocket 4.0 19:22:10 10° S 19:27:08 59° W 19:32:09 10° NNW
Cosmos 2237 Rocket 2.3 19:21:53 10° NNW 19:27:28 51° ENE 19:28:14 48° E
Gbstr 26 Del rocket 4.0 19:25:13 10° W 19:28:39 33° NNW 19:29:29 29° N
COSMOS 2428 3.4 19:23:11 10° NNW 19:28:42 53° WSW 19:34:12 10° S
Helios 1B rocket 2.3 19:25:07 10° NNE 19:29:17 80° ESE 19:33:26 10° S
Cosmos 2297 Rocket 3.8 19:24:38 10° S 19:26:19 19° SSE 19:26:19 19° SSE
Resurs 01 Rocket 2.9 19:31:51 10° SSW 19:35:59 40° W 19:40:09 10° NNW
NOSS 3-1 (A) 4.3 19:30:07 10° NNW 19:37:23 50° NE 19:39:18 42° E
Atlas Centaur 2 4.3 19:35:33 10° SSW 19:38:25 14° S 19:38:25 14° S
Cosmos 2219 Rocket 2.2 19:35:39 10° NNW 19:41:15 75° WSW 19:43:37 36° S
ATLAS 2AS CENTAUR R/B 4.3 19:36:01 10° NNW 19:42:20 24° NNE 19:43:50 23° NE
ERS-1 Rocket 4.3 19:45:15 26° NNE 19:45:15 26° NNE 19:47:45 10° N
Cosmos 1814 Rocket 3.8 19:38:15 10° NNW 19:43:26 77° ENE 19:43:31 77° E
Envisat 3.1 19:44:07 60° NE 19:44:07 60° NE 19:48:35 10° N
USA 32 4.4 19:41:20 10° N 19:45:18 48° NNE 19:45:18 48° NNE
Cosmos 2227 Rocket 2.1 19:44:18 10° SSW 19:49:27 69° SSE 19:49:27 69° SSE
NOSS 3-1 (C) 3.9 19:48:24 10° NNW 19:56:00 75° NE 19:57:53 56° ESE
SL-16 R/B 3.3 19:57:04 10° NNW 20:00:38 33° NNE 20:00:38 33° NNE
Cosmos 2333 Rocket 3.2 20:17:38 10° NW 20:23:03 43° WSW 20:23:55 40° SW
Cosmos 1980 4.4 20:20:55 10° NW 20:26:08 49° W 20:26:08 49° W
Cosmos 2237 Rocket 4.3 21:06:46 10° NW 21:10:07 22° W 21:10:07 22° W
ATLAS 2AS CENTAUR R/B 4.2 21:26:48 10° NNW 21:31:17 36° NNW 21:31:17 36° NNW
